Location: Mohawk View
(42.7837°N, 73.7885°W)
Time: 07:41:26
(UTC+00:00)

USA 267 - Pass Details

Date: 17 June 2021
Orbit: 1102 x 1106 km, 123.0° (Epoch: 03 August)

Event Time Altitude Azimuth Distance (km) Brightness Sun altitude
Exits shadow 03:34:23 11° 101° (ESE) 2,887 5.2 -21.2°
Maximum altitude 03:40:26 50° 29° (NNE) 1,382 4.0 -21.6°
Drops below altitude 10° 03:46:41 10° 317° (NW) 2,967 6.4 -21.9°
Sets 03:49:14 0° 313° (NW) 3,928 7.1 -22.1°
